Weather History for Kelso-Longview, WA

Change the Weather History Date:

Tuesday, April 1, 2014

  Actual Average Record
Temperature  
Mean Temperature 50 °F -  
Max Temperature 53 °F 53 °F 66 °F (2013)
Min Temperature 46 °F 37 °F 28 °F (2008)
Degree Days  
Heating Degree Days 16    
Moisture  
Dew Point 42 °F    
Average Humidity 81    
Maximum Humidity 87    
Minimum Humidity 67    
Precipitation  
Precipitation 0.35 in - - ()
Sea Level Pressure  
Sea Level Pressure 29.88 in    
Wind  
Wind Speed 2 mph (SSW)    
Max Wind Speed 7 mph    
Max Gust Speed -    
Visibility 10 miles    
Events      
Averages and records for this station are not official NWS values.
T = Trace of Precipitation, MM = Missing Value Source: NWS Daily Summary

Daily Weather History Graph

Daily Weather History Graph

Search for Another Location

Airport:

Trip Planner

Search our weather history database for the weather conditions in past years. The results will help you decide how hot, cold, wet, or windy it might be!

Date:

Astronomy

Apr. 01, 2014 Rise Set
Actual Time 6:51 AM PDT 7:40 PM PDT
Civil Twilight 6:20 AM PDT 8:10 PM PDT
Nautical Twilight 5:44 AM PDT 8:47 PM PDT
Astronomical Twilight 5:07 AM PDT 9:24 PM PDT
Moon 7:51 AM PDT (4/1) 10:17 PM PDT (4/1)
Length of Visible Light 13h 49m
Length of Day
12h 49m
Waxing Crescent, 5% of the Moon is Illuminated
Apr 1
Waxing Crescent
Apr 7
First Quarter
Apr 15
Full
Apr 22
Last Quarter
Apr 28
New

Hourly Weather History & Observations

Time (PDT) Temp. Windchill Dew Point Humidity Pressure Visibility Wind Dir Wind Speed Gust Speed Precip Events Conditions
12:15 AM 48.2 °F - 42.8 °F 82% 29.77 in 10.0 mi SSE 3.5 mph - N/A   Overcast
12:35 AM 46.4 °F - 42.8 °F 87% 29.77 in 10.0 mi Calm Calm - N/A   Overcast
12:55 AM 46.4 °F - 42.8 °F 87% 29.78 in 10.0 mi Calm Calm - 0.01 in   Overcast
1:15 AM 46.4 °F - 42.8 °F 87% 29.77 in 10.0 mi Calm Calm - N/A   Overcast
1:35 AM 46.4 °F - 42.8 °F 87% 29.78 in 10.0 mi Calm Calm - N/A   Overcast
1:55 AM 46.4 °F - 42.8 °F 87% 29.78 in 10.0 mi Calm Calm - N/A   Overcast
2:15 AM 46.4 °F - 42.8 °F 87% 29.78 in 10.0 mi Calm Calm - N/A   Overcast
2:35 AM 46.4 °F - 42.8 °F 87% 29.78 in 10.0 mi Calm Calm - 0.01 in   Overcast
2:55 AM 46.4 °F - 42.8 °F 87% 29.79 in 10.0 mi Calm Calm - 0.01 in   Overcast
3:15 AM 46.4 °F - 42.8 °F 87% 29.79 in 8.0 mi Calm Calm - N/A   Overcast
3:35 AM 46.4 °F - 42.8 °F 87% 29.79 in 8.0 mi Calm Calm - N/A   Overcast
3:55 AM 46.4 °F - 42.8 °F 87% 29.79 in 8.0 mi Calm Calm - 0.01 in   Overcast
4:15 AM 46.4 °F - 42.8 °F 87% 29.80 in 10.0 mi Calm Calm - N/A   Overcast
4:35 AM 46.4 °F 44.3 °F 42.8 °F 87% 29.80 in 10.0 mi SE 4.6 mph - 0.01 in   Overcast
4:55 AM 46.4 °F 44.3 °F 42.8 °F 87% 29.80 in 10.0 mi SE 4.6 mph - 0.01 in   Overcast
5:15 AM 46.4 °F 45.2 °F 42.8 °F 87% 29.80 in 10.0 mi SE 3.5 mph - 0.01 in   Overcast
5:35 AM 46.4 °F - 42.8 °F 87% 29.80 in 10.0 mi Calm Calm - 0.02 in   Overcast
5:55 AM 46.4 °F - 42.8 °F 87% 29.80 in 10.0 mi Calm Calm - 0.02 in   Overcast
6:15 AM 46.4 °F - 42.8 °F 87% 29.81 in 10.0 mi Calm Calm - 0.01 in   Overcast
6:35 AM 46.4 °F 44.3 °F 42.8 °F 87% 29.82 in 7.0 mi SSE 4.6 mph - 0.04 in   Overcast
6:55 AM 46.4 °F 44.3 °F 42.8 °F 87% 29.82 in 5.0 mi SE 4.6 mph - 0.07 in   Overcast
7:15 AM 46.4 °F - 42.8 °F 87% 29.84 in 3.0 mi Calm Calm - 0.04 in   Overcast
7:35 AM 46.4 °F - 42.8 °F 87% 29.84 in 5.0 mi Calm Calm - 0.08 in   Overcast
7:55 AM 46.4 °F - 39.2 °F 76% 29.84 in 10.0 mi Calm Calm - 0.10 in   Overcast
8:15 AM 46.4 °F - 41.0 °F 81% 29.85 in 10.0 mi Calm Calm - 0.01 in   Overcast
8:35 AM 46.4 °F - 41.0 °F 81% 29.85 in 10.0 mi Calm Calm - 0.01 in   Overcast
8:55 AM 46.4 °F - 41.0 °F 81% 29.86 in 10.0 mi Calm Calm - 0.01 in   Overcast
9:15 AM 46.4 °F 44.3 °F 42.8 °F 87% 29.87 in 10.0 mi SSE 4.6 mph - N/A   Overcast
9:35 AM 46.4 °F - 42.8 °F 87% 29.87 in 10.0 mi Calm Calm - N/A   Overcast
9:55 AM 46.4 °F 44.3 °F 42.8 °F 87% 29.88 in 10.0 mi SE 4.6 mph - N/A   Overcast
10:15 AM 46.4 °F 44.3 °F 42.8 °F 87% 29.89 in 10.0 mi South 4.6 mph - N/A   Overcast
10:35 AM 46.4 °F 44.3 °F 42.8 °F 87% 29.89 in 10.0 mi South 4.6 mph - N/A   Overcast
10:55 AM 46.4 °F 42.9 °F 42.8 °F 87% 29.90 in 10.0 mi SSE 6.9 mph - N/A   Overcast
11:15 AM 46.4 °F 43.5 °F 42.8 °F 87% 29.90 in 10.0 mi South 5.8 mph - 0.01 in   Overcast
11:35 AM 48.2 °F - 42.8 °F 82% 29.90 in 10.0 mi SSE 4.6 mph - 0.01 in   Overcast
11:55 AM 48.2 °F - 42.8 °F 82% 29.90 in 10.0 mi SSE 3.5 mph - 0.01 in   Mostly Cloudy
12:15 PM 48.2 °F - 44.6 °F 87% 29.90 in 10.0 mi South 4.6 mph - 0.01 in   Overcast
12:35 PM 48.2 °F - 42.8 °F 82% 29.91 in 10.0 mi South 4.6 mph - 0.01 in   Overcast
12:55 PM 48.2 °F - 42.8 °F 82% 29.91 in 10.0 mi Calm Calm - 0.01 in   Overcast
1:15 PM 48.2 °F - 44.6 °F 87% 29.91 in 10.0 mi Calm Calm - 0.01 in   Overcast
1:35 PM 48.2 °F - 44.6 °F 87% 29.92 in 10.0 mi Calm Calm - 0.01 in   Overcast
1:55 PM 50.0 °F - 44.6 °F 82% 29.92 in 10.0 mi South 4.6 mph - 0.01 in   Overcast
2:15 PM 50.0 °F - 44.6 °F 82% 29.92 in 10.0 mi South 3.5 mph - 0.01 in   Overcast
2:35 PM 50.0 °F - 44.6 °F 82% 29.92 in 10.0 mi Calm Calm - 0.01 in   Overcast
2:55 PM 50.0 °F - 42.8 °F 76% 29.92 in 8.0 mi Calm Calm - 0.01 in   Overcast
3:15 PM 48.2 °F - 44.6 °F 87% 29.92 in 5.0 mi Calm Calm - 0.06 in   Overcast
3:35 PM 50.0 °F - 44.6 °F 82% 29.92 in 10.0 mi Calm Calm - 0.07 in   Mostly Cloudy
3:55 PM 50.0 °F - 44.6 °F 82% 29.92 in 10.0 mi WNW 3.5 mph - 0.07 in   Overcast
4:15 PM 51.8 °F - 44.6 °F 76% 29.92 in 10.0 mi NW 5.8 mph - N/A   Overcast
4:35 PM 51.8 °F - 44.6 °F 76% 29.92 in 10.0 mi WNW 4.6 mph - N/A   Mostly Cloudy
4:55 PM 53.6 °F - 44.6 °F 72% 29.92 in 10.0 mi West 4.6 mph - N/A   Mostly Cloudy
5:15 PM 53.6 °F - 42.8 °F 67% 29.92 in 10.0 mi West 5.8 mph - N/A   Overcast
5:35 PM 53.6 °F - 42.8 °F 67% 29.92 in 10.0 mi West 5.8 mph - N/A   Mostly Cloudy
5:55 PM 53.6 °F - 42.8 °F 67% 29.91 in 10.0 mi WNW 6.9 mph - N/A   Overcast
6:15 PM 53.6 °F - 42.8 °F 67% 29.92 in 10.0 mi West 6.9 mph - N/A   Overcast
6:35 PM 51.8 °F - 42.8 °F 71% 29.92 in 10.0 mi WNW 6.9 mph - N/A   Overcast
6:55 PM 51.8 °F - 42.8 °F 71% 29.92 in 10.0 mi WNW 4.6 mph - N/A   Overcast
7:15 PM 51.8 °F - 42.8 °F 71% 29.92 in 10.0 mi WNW 5.8 mph - N/A   Overcast
7:35 PM 51.8 °F - 41.0 °F 67% 29.92 in 10.0 mi NW 4.6 mph - N/A   Overcast
7:55 PM 51.8 °F - 41.0 °F 67% 29.93 in 10.0 mi Calm Calm - N/A   Overcast
8:15 PM 50.0 °F - 41.0 °F 71% 29.94 in 10.0 mi North 3.5 mph - N/A   Overcast
8:35 PM 50.0 °F - 41.0 °F 71% 29.94 in 10.0 mi North 4.6 mph - N/A   Overcast
8:55 PM 50.0 °F - 41.0 °F 71% 29.95 in 10.0 mi Calm Calm - N/A   Overcast
9:15 PM 48.2 °F - 39.2 °F 71% 29.96 in 10.0 mi NNW 3.5 mph - N/A   Overcast
9:35 PM 48.2 °F - 39.2 °F 71% 29.96 in 10.0 mi Calm Calm - N/A   Overcast
9:55 PM 48.2 °F - 39.2 °F 71% 29.97 in 10.0 mi Calm Calm - N/A   Overcast
10:15 PM 48.2 °F - 39.2 °F 71% 29.97 in 10.0 mi Calm Calm - N/A   Overcast
10:35 PM 48.2 °F - 39.2 °F 71% 29.98 in 10.0 mi Calm Calm - N/A   Overcast
10:55 PM 48.2 °F - 39.2 °F 71% 29.98 in 10.0 mi Calm Calm - N/A   Overcast
11:15 PM 48.2 °F - 41.0 °F 76% 29.98 in 10.0 mi Calm Calm - N/A   Overcast
11:35 PM 46.4 °F - 41.0 °F 81% 29.99 in 10.0 mi Calm Calm - N/A   Overcast
11:55 PM 48.2 °F - 41.0 °F 76% 29.99 in 10.0 mi Calm Calm - N/A   Overcast